Home > Weather > Oldenburg > Past weeks

Flag for Germany Past Weather in Oldenburg, Lower Saxony, Germany — Yesterday and Last 2 Weeks

Now
86 °F

Passing clouds.


Feels Like: 85 °F
Forecast: 67 / 85 °F
Wind: 10 mph from Southeast

Location: Bremen Airport

Current Time: Aug 24, 2016 at 6:17:39 PM

Latest Report: Aug 24, 2016 at 5:20 PM


Visibility: N/A

Pressure: 30.15 "Hg

Humidity: 40%

Dew Point: 59 °F

Location of OldenburgLocation

Past Weather in Oldenburg — Graph

°F

Oldenburg Temperature Yesterday

Maximum temperature yesterday: 77 °F (at 4:20 PM)
Minimum temperature yesterday: 63 °F (at 12:20 AM)
Average temperature yesterday: 68 °F

High & Low Weather Summary for the Past Weeks

 TemperatureHumidityPressure
High88 °F (Aug 24, 4:50 PM)100% (Aug 11, 12:20 AM)30.33 "Hg (Aug 11, 12:20 AM)
Low45 °F (Aug 11, 1:20 AM)34% (Aug 19, 4:50 PM)29.80 "Hg (Aug 18, 4:20 PM)
Average61 °F81%30.08 "Hg
* Reported Aug 9 5:20 PM — Aug 24 5:20 PM, Oldenburg, Weather by CustomWeather, © 2016

Note: Actual official high and low records may vary slightly from our data, if they occured in-between our weather recording intervals... More about our weather records

Advertising

Oldenburg Weather History for the Previous 24 Hours

Scroll right to see more
 ConditionsComfort  
Time TempWeatherWind HumidityBarometerVisibility
5:20 PM
Wed, Aug 24
86 °FPassing clouds.10 mph40%30.15 "HgN/A
4:50 PM88 °FPassing clouds.9 mph40%30.15 "HgN/A
4:20 PM86 °FPassing clouds.9 mph40%30.18 "HgN/A
3:50 PM86 °FPassing clouds.7 mph40%30.18 "HgN/A
3:20 PM86 °FPassing clouds.9 mph43%30.18 "HgN/A
2:50 PM86 °FPassing clouds.9 mph43%30.18 "HgN/A
2:20 PM84 °FPassing clouds.13 mph45%30.18 "HgN/A
1:50 PM84 °FPassing clouds.12 mph43%30.18 "HgN/A
1:20 PM82 °FPassing clouds.10 mph51%30.21 "HgN/A
12:50 PM82 °FPassing clouds.9 mph51%30.21 "HgN/A
12:20 PM81 °FPassing clouds.9 mph58%30.21 "HgN/A
11:50 AM79 °FSunny.10 mph61%30.24 "Hg10 mi
11:20 AM77 °FPassing clouds.9 mph65%30.24 "HgN/A
10:50 AM75 °FPassing clouds.9 mph69%30.24 "HgN/A
10:20 AM73 °FSunny.9 mph74%30.24 "Hg10 mi
9:50 AM72 °FPassing clouds.9 mph78%30.24 "HgN/A
9:20 AM70 °FSunny.9 mph83%30.24 "Hg10 mi
8:50 AM68 °FSunny.8 mph83%30.24 "Hg10 mi
8:20 AM66 °FPassing clouds.7 mph88%30.24 "HgN/A
7:50 AM64 °FPassing clouds.5 mph94%30.24 "HgN/A
7:20 AM63 °FPassing clouds.5 mph100%30.24 "HgN/A
6:50 AM63 °FFog.5 mph94%30.24 "HgN/A
6:20 AM63 °FFog.6 mph94%30.24 "HgN/A
5:50 AM63 °FClear.6 mph94%30.24 "Hg10 mi
5:20 AM63 °FClear.6 mph94%30.24 "Hg10 mi
4:50 AM63 °FClear.6 mph94%30.24 "Hg10 mi
4:20 AM61 °FClear.6 mph100%30.27 "Hg10 mi
3:50 AM63 °FFog.5 mph100%30.27 "Hg5 mi
3:20 AM63 °FFog.5 mph94%30.27 "Hg5 mi
2:50 AM63 °FFog.6 mph94%30.27 "Hg5 mi
2:20 AM63 °FFog.5 mph94%30.27 "Hg5 mi
1:50 AM61 °FFog.2 mph100%30.27 "Hg6 mi
1:20 AM63 °FClear.2 mph94%30.27 "Hg10 mi
12:50 AM64 °FClear.5 mph94%30.27 "Hg10 mi
12:20 AM64 °FClear.3 mph94%30.30 "Hg10 mi
11:50 PM
Tue, Aug 23
64 °FClear.1 mph94%30.30 "Hg10 mi
11:20 PM64 °FClear.3 mph94%30.30 "Hg10 mi
10:50 PM66 °FClear.5 mph88%30.30 "Hg10 mi
10:20 PM66 °FClear.3 mph88%30.30 "Hg10 mi
9:50 PM68 °FClear.3 mph88%30.30 "Hg10 mi
9:20 PM70 °FPartly sunny.3 mph83%30.30 "HgN/A
8:50 PM70 °FPartly sunny.3 mph78%30.30 "HgN/A
8:20 PM73 °FPartly sunny.3 mph74%30.27 "HgN/A
7:50 PM73 °FPartly sunny.2 mph69%30.27 "HgN/A
7:20 PM75 °FPartly sunny.3 mph65%30.27 "HgN/A
6:50 PM75 °FPartly sunny.3 mph65%30.27 "HgN/A
6:20 PM77 °FBroken clouds.5 mph61%30.30 "HgN/A
Weather by CustomWeather, © 2016

See weather overviewHow to use our weather pages